Wind_Speed
65 60 57 54 52 51 49 38 37 32 43 42 55 65 70 70 72 72 74 73 75 75 74 75 77 77 78 79 78 79 80 80
49 47 46 46 47 47 43 30 39 44 64 58 57 64 67 72 76 78 76 75 76 76 77 77 77 79 81 80 83 85 86 85
42 43 43 43 39 34 43 44 48 54 57 60 65 70 72 74 74 73 74 75 76 77 78 79 80 81 83 86 88 89 91 93
34 39 42 44 47 51 55 57 59 60 63 65 68 72 74 74 72 72 73 75 77 79 81 82 84 87 87 89 92 95 95 98
38 44 47 49 51 53 54 56 58 60 62 63 66 68 67 67 69 71 74 78 82 83 85 85 86 89 93 97 100 102 103 104
30 32 34 37 41 44 46 47 48 51 55 59 62 65 68 71 74 76 77 79 82 85 85 87 92 96 100 104 108 111 112 114
34 36 38 42 45 47 49 51 54 56 58 61 64 67 70 72 74 76 77 80 81 85 90 95 100 105 108 112 115 120 121 123
39 42 46 48 50 53 55 57 59 61 61 62 65 68 70 72 74 76 79 84 89 94 98 103 107 112 115 118 120 122 123 124
43 46 48 50 53 55 56 58 60 62 62 64 67 69 71 74 77 80 83 89 95 100 105 109 112 115 119 121 122 120 119 120
45 48 50 51 52 54 57 59 61 64 65 68 70 72 75 77 79 84 89 96 101 107 111 113 118 120 119 119 118 117 118 120
49 51 52 55 58 60 61 62 64 65 66 67 70 72 75 78 83 90 97 102 105 108 112 116 121 120 119 120 120 116 115 114
53 53 54 56 58 60 60 61 62 62 64 66 69 72 78 85 92 100 104 106 109 115 117 116 118 117 118 117 114 111 108 103
49 51 53 54 56 57 58 59 61 62 65 68 74 80 87 94 100 103 105 109 115 121 120 120 119 114 112 108 102 99 95 91
50 51 51 52 53 55 57 58 61 65 69 75 81 88 93 97 103 107 114 116 121 121 122 121 116 106 101 97 93 90 88 85
57 55 53 54 54 56 58 61 66 71 77 83 89 96 102 107 112 116 120 126 124 123 120 117 109 99 93 90 88 85 82 79
59 57 55 55 56 59 64 70 75 81 88 93 99 105 110 114 118 123 127 126 125 121 118 110 103 95 90 87 84 79 76 74
63 58 57 58 62 67 72 78 84 90 94 100 105 110 114 118 124 127 125 123 123 118 111 103 96 91 88 84 79 76 72 68
66 61 61 64 69 75 81 86 91 96 101 107 111 114 118 124 126 122 123 122 118 111 104 97 92 87 83 78 75 71 68 65
66 65 68 72 76 82 87 93 98 103 109 112 115 118 123 123 121 122 121 118 111 104 98 92 87 82 77 73 70 67 65 61
Wind_Direction
280 284 285 287 287 287 287 280 274 304 280 259 255 268 280 279 282 288 288 286 286 288 289 292 292 292 291 291 290 288 287 286
283 280 282 282 283 286 287 265 260 242 259 266 271 276 280 285 286 288 288 288 289 291 291 290 290 290 290 289 288 288 286 285
282 282 285 287 288 280 276 274 272 271 275 277 274 281 283 284 284 286 287 288 288 287 288 288 288 288 288 288 287 286 285 283
282 281 279 280 280 283 283 282 282 279 281 284 282 281 281 283 285 288 288 289 290 289 289 289 288 289 288 287 286 285 286 286
279 279 282 283 285 286 287 286 287 287 285 283 280 282 286 288 287 287 288 288 289 290 289 288 289 290 290 292 294 295 293 291
295 295 294 292 291 290 290 291 291 287 285 287 288 287 287 288 289 290 291 291 293 294 294 293 294 295 296 297 298 298 298 298
293 294 293 291 291 293 294 293 291 292 290 288 289 290 292 293 294 294 295 296 295 295 295 297 299 300 301 301 300 299 298 297
302 303 303 301 301 302 301 301 301 298 297 298 298 298 297 298 299 298 297 297 299 301 302 301 302 302 301 299 298 296 295 295
301 302 302 301 301 301 302 301 301 303 304 303 301 300 300 300 299 300 303 303 303 302 302 301 299 298 298 297 297 297 295 293
302 302 301 301 299 301 301 301 304 304 302 301 304 304 303 304 306 305 304 303 302 300 300 300 299 299 301 299 298 297 295 294
301 302 304 306 307 306 306 306 306 305 303 302 302 304 305 304 303 303 302 302 303 304 304 304 304 303 304 302 301 300 297 296
303 303 304 304 304 304 303 304 302 301 301 302 303 303 302 303 304 304 303 304 305 310 309 308 308 308 307 304 301 300 299 298
308 305 302 301 301 302 302 302 301 301 302 302 303 304 304 305 306 308 309 310 311 313 313 312 310 309 307 304 303 301 301 301
311 308 304 303 303 303 303 303 302 303 305 305 306 307 309 310 313 316 316 315 315 315 315 313 312 311 309 307 306 305 304 303
317 314 311 309 308 306 305 305 305 306 306 309 312 315 316 317 317 317 317 318 318 316 315 315 314 313 312 310 309 307 306 304
317 314 312 310 309 310 311 312 312 312 314 315 316 318 318 318 318 318 318 318 317 317 317 316 315 314 314 312 310 308 306 305
316 315 313 313 315 314 315 317 318 318 317 318 319 318 319 320 319 317 317 317 317 318 319 317 316 316 314 312 311 310 308 307
318 316 314 315 316 317 318 318 318 318 318 319 319 319 320 318 318 318 318 318 319 320 319 317 317 316 313 312 311 309 309 309
319 316 316 318 318 317 317 318 318 318 320 321 319 319 318 318 319 318 319 320 320 320 318 318 316 314 313 312 311 311 311 310
Height
10681 10676 10670 10665 10663 10662 10664 10661 10658 10656 10645 10645 10637 10627 10624 10619 10614 10608 10602 10599 10596 10592 10587 10581 10574 10568 10563 10559 10553 10547 10544 10541
10669 10663 10660 10658 10656 10654 10654 10651 10645 10643 10635 10632 10626 10621 10614 10608 10602 10595 10589 10584 10579 10574 10570 10564 10558 10552 10546 10540 10535 10529 10523 10518
10658 10653 10651 10651 10646 10643 10640 10638 10633 10630 10628 10623 10617 10610 10603 10596 10588 10582 10575 10568 10563 10558 10553 10548 10542 10537 10531 10524 10517 10510 10501 10494
10651 10646 10643 10641 10637 10634 10629 10624 10620 10615 10612 10607 10601 10594 10588 10581 10574 10566 10559 10553 10547 10540 10534 10529 10523 10516 10508 10500 10492 10485 10481 10472
10642 10636 10634 10632 10628 10623 10618 10613 10608 10604 10600 10593 10585 10580 10574 10567 10560 10554 10546 10538 10530 10524 10516 10508 10500 10492 10483 10473 10463 10455 10448 10440
10635 10632 10628 10624 10619 10613 10608 10604 10599 10593 10586 10580 10573 10567 10560 10552 10545 10538 10531 10521 10512 10503 10494 10484 10474 10464 10455 10444 10431 10418 10406 10395
10626 10624 10620 10614 10610 10605 10599 10593 10586 10581 10574 10567 10559 10550 10541 10534 10527 10520 10512 10502 10492 10482 10472 10462 10449 10437 10425 10412 10398 10385 10373 10360
10615 10612 10605 10600 10594 10588 10582 10576 10569 10564 10558 10550 10542 10533 10525 10518 10510 10501 10490 10480 10468 10457 10447 10434 10422 10409 10395 10383 10369 10353 10339 10324
10603 10599 10594 10587 10580 10573 10567 10561 10554 10545 10538 10531 10524 10516 10508 10499 10491 10481 10471 10459 10446 10434 10421 10409 10397 10382 10367 10351 10333 10319 10301 10281
10594 10588 10582 10576 10570 10563 10555 10547 10539 10532 10524 10515 10506 10498 10489 10480 10471 10461 10451 10439 10426 10414 10399 10384 10365 10347 10330 10312 10294 10278 10261 10242
10586 10578 10571 10563 10556 10548 10541 10534 10526 10517 10509 10502 10494 10487 10478 10469 10458 10445 10431 10418 10402 10387 10369 10350 10329 10311 10290 10270 10249 10233 10217 10201
10574 10568 10561 10554 10546 10538 10530 10523 10515 10507 10499 10492 10483 10475 10465 10453 10439 10424 10408 10392 10373 10353 10335 10315 10294 10277 10253 10232 10214 10196 10179 10167
10566 10559 10552 10544 10536 10528 10520 10512 10503 10496 10488 10479 10469 10458 10446 10433 10417 10399 10381 10361 10341 10321 10297 10277 10260 10242 10218 10196 10181 10164 10150 10138
10556 10548 10540 10532 10524 10516 10508 10500 10491 10482 10473 10464 10453 10439 10425 10407 10387 10367 10348 10329 10310 10287 10265 10242 10225 10207 10186 10165 10150 10135 10123 10112
10540 10532 10524 10517 10509 10502 10494 10486 10477 10467 10455 10443 10428 10412 10393 10375 10355 10335 10315 10295 10276 10257 10235 10211 10190 10174 10158 10140 10125 10111 10100 10089
10525 10517 10510 10503 10494 10486 10478 10468 10457 10445 10431 10416 10400 10382 10364 10345 10326 10305 10285 10266 10246 10224 10204 10182 10162 10147 10131 10115 10102 10090 10079 10068
10511 10502 10494 10486 10477 10468 10459 10447 10434 10420 10406 10391 10374 10357 10337 10318 10299 10281 10261 10240 10218 10198 10176 10157 10139 10123 10108 10093 10080 10069 10059 10049
10495 10487 10480 10471 10461 10449 10436 10425 10413 10399 10383 10367 10350 10330 10311 10294 10275 10253 10231 10211 10189 10169 10150 10133 10116 10102 10088 10075 10062 10052 10041 10032
10480 10471 10462 10452 10441 10430 10419 10407 10392 10376 10359 10342 10323 10307 10290 10270 10248 10225 10203 10183 10164 10144 10127 10111 10097 10084 10070 10057 10046 10035 10025 10016